EW3582 Weather Reports


time (UTC)temp
C
wind
direction
speed
KPH
gust
KPH
rain 1hr
cm
rain 24hr
cm
rain mn
cm
humidity
%
barometer
mb
20260505111004 22 277 3.2 14.5 0.00 0.05 0.00 41 1006.4
20260505110504 22 102 3.2 14.5 0.00 0.05 0.00 42 1006.5
20260505101504 21 69 3.2 14.5 0.00 0.05 0.00 51 1007.0
20260505100457 21 40 6.4 14.5 0.00 0.05 0.00 51 1007.0
20260505095954 21 62 8.0 14.5 0.00 0.05 0.00 54 1007.1
20260505095446 21 105 8.0 14.5 0.00 0.05 0.00 53 1007.1
20260505094938 21 90 6.4 14.5 0.00 0.05 0.00 52 1007.2
20260505093435 21 83 6.4 16.1 0.00 0.05 0.00 56 1007.3
20260505092944 21 326 6.4 16.1 0.00 0.05 0.00 61 1007.3
20260505092436 20 132 6.4 17.7 0.00 0.05 0.00 53 1007.3
20260505091936 20 62 9.7 17.7 0.00 0.05 0.00 57 1007.4
20260505091436 20 79 8.0 16.1 0.00 0.05 0.00 56 1007.4
20260505090933 21 84 4.8 12.9 0.00 0.05 0.00 56 1007.4
20260505090432 20 71 4.8 11.3 0.00 0.05 0.00 57 1007.6
20260505085944 20 75 6.4 16.1 0.00 0.05 0.00 62 1007.6
20260505085433 20 67 8.0 16.1 0.00 0.05 0.00 56 1007.6
20260505084932 20 64 9.7 19.3 0.00 0.05 0.00 59 1007.7
20260505084433 20 99 8.0 19.3 0.00 0.05 0.00 61 1007.7
20260505083931 20 67 6.4 14.5 0.00 0.05 0.00 61 1007.8
20260505082934 19 74 3.2 11.3 0.00 0.05 0.00 58 1007.8
20260505082431 19 75 3.2 11.3 0.00 0.05 0.00 59 1007.8
20260505081932 19 64 3.2 8.0 0.00 0.05 0.00 58 1007.9
20260505080921 19 67 3.2 9.7 0.00 0.05 0.00 62 1008.0
20260505075410 18 56 6.4 11.3 0.00 0.05 0.00 66 1008.0
20260505074910 18 68 6.4 9.7 0.00 0.05 0.00 68 1008.0
20260505073910 17 90 8.0 12.9 0.00 0.05 0.00 71 1008.2
20260505072409 17 62 8.0 12.9 0.00 0.05 0.00 72 1008.2
20260505071909 17 73 8.0 12.9 0.00 0.05 0.00 72 1008.2
20260505071410 17 64 9.7 12.9 0.00 0.05 0.00 74 1008.3
20260505070911 17 82 8.0 12.9 0.00 0.05 0.00 75 1008.3
20260505070412 17 60 6.4 12.9 0.00 0.05 0.00 72 1008.3
20260505065907 17 95 4.8 9.7 0.00 0.05 0.00 73 1008.3
20260505065407 16 78 4.8 8.0 0.00 0.05 0.00 73 1008.3
20260505064906 16 71 4.8 8.0 0.00 0.05 0.00 72 1008.4
20260505064407 16 64 4.8 8.0 0.00 0.05 0.00 71 1008.3
20260505063910 17 72 3.2 8.0 0.00 0.05 0.00 72 1008.3
20260505063410 17 73 1.6 6.4 0.00 0.05 0.00 72 1008.3
20260505062358 17 343 0.0 1.6 0.00 0.05 0.00 74 1008.3
20260505061347 16 326 0.0 1.6 0.00 0.05 0.00 74 1008.3
20260505060840 16 329 0.0 1.6 0.00 0.05 0.00 77 1008.4
20260505060335 16 353 0.0 0.0 0.00 0.05 0.00 77 1008.4
20260505055837 15 340 0.0 1.6 0.00 0.05 0.00 82 1008.5
20260505055338 14 341 0.0 1.6 0.00 0.05 0.00 84 1008.5
20260505054833 13 341 0.0 0.0 0.00 0.05 0.00 85 1008.4
20260505054335 12 348 0.0 0.0 0.00 0.05 0.00 83 1008.4
20260505053831 11 344 0.0 0.0 0.00 0.05 0.00 81 1008.4
20260505053332 11 348 0.0 0.0 0.00 0.05 0.00 81 1008.5
20260505052829 11 353 0.0 0.0 0.00 0.05 0.00 79 1008.4
20260505051824 10 353 0.0 0.0 0.00 0.05 0.00 74 1008.4
20260505051324 10 353 0.0 0.0 0.00 0.05 0.00 75 1008.4
20260505050825 9 348 0.0 0.0 0.00 0.05 0.00 75 1008.4
20260505050338 9 353 0.0 0.0 0.00 0.05 0.00 76 1008.5
20260505041315 8 348 0.0 0.0 0.00 0.05 0.00 78 1008.5
20260505040815 8 353 0.0 0.0 0.00 0.05 0.00 78 1008.6
20260505035812 8 353 0.0 0.0 0.00 0.05 0.00 78 1008.5
20260505035311 8 353 0.0 0.0 0.00 0.05 0.00 79 1008.4
20260505034312 8 348 0.0 0.0 0.00 0.05 0.00 78 1008.5
20260505033814 8 348 0.0 0.0 0.00 0.05 0.00 78 1008.5
20260505033312 8 348 0.0 0.0 0.00 0.05 0.00 79 1008.5
20260505032812 8 348 0.0 0.0 0.00 0.05 0.00 78 1008.4
20260505031341 8 353 0.0 0.0 0.00 0.05 0.00 79 1008.6
20260505030813 8 348 0.0 0.0 0.00 0.05 0.00 79 1008.6
20260505030337 8 348 0.0 0.0 0.00 0.05 0.00 79 1008.7
20260505024812 8 353 0.0 0.0 0.00 0.05 0.00 81 1008.8
20260505024313 9 353 0.0 0.0 0.00 0.05 0.00 80 1008.9
20260505023813 9 348 0.0 0.0 0.00 0.05 0.00 80 1008.9
20260505023311 9 348 0.0 0.0 0.00 0.05 0.00 80 1008.9
20260505022309 9 348 0.0 0.0 0.00 0.05 0.00 80 1009.0
20260505021810 9 348 0.0 0.0 0.00 0.05 0.00 80 1009.1
20260505021309 9 348 0.0 0.0 0.00 0.05 0.00 81 1009.2
20260505020310 9 348 0.0 3.2 0.00 0.05 0.00 81 1009.2
20260505015810 10 353 0.0 3.2 0.00 0.05 0.00 80 1009.4
20260505015328 10 348 0.0 3.2 0.00 0.05 0.00 80 1009.4
20260505014809 9 348 0.0 3.2 0.00 0.05 0.00 81 1009.4
20260505014308 10 348 0.0 3.2 0.00 0.05 0.00 80 1009.6
20260505013808 10 353 0.0 0.0 0.00 0.05 0.00 80 1009.6
20260505013309 10 341 0.0 0.0 0.00 0.05 0.00 79 1009.8
20260505012808 10 341 0.0 0.0 0.00 0.05 0.00 79 1009.7
20260505012308 10 340 0.0 0.0 0.00 0.05 0.00 78 1009.7
20260505011808 10 341 0.0 0.0 0.00 0.05 0.00 78 1009.8
20260505011321 10 341 0.0 0.0 0.00 0.05 0.00 77 1009.8
20260505010808 10 340 0.0 0.0 0.00 0.05 0.00 77 1009.8
20260505010322 10 353 0.0 0.0 0.00 0.05 0.00 77 1009.8
20260505005854 10 353 0.0 0.0 0.00 0.05 0.00 78 1009.7
20260505005309 10 353 0.0 0.0 0.00 0.05 0.00 78 1009.7
20260505004810 10 340 0.0 0.0 0.00 0.05 0.00 78 1009.7
20260505004308 10 341 0.0 0.0 0.00 0.05 0.00 78 1009.8
20260505003808 10 340 0.0 0.0 0.00 0.05 0.00 78 1009.8
20260505003308 10 341 0.0 0.0 0.00 0.05 0.00 78 1009.8
20260505002808 10 340 0.0 0.0 0.00 0.05 0.00 78 1009.8
20260505001309 10 341 0.0 0.0 0.00 0.05 0.00 79 1009.9
20260505000308 10 341 0.0 0.0 0.00 0.05 0.00 79 1009.9
20260504235808 10 353 0.0 0.0 0.00 0.05 0.00 80 1010.0
20260504235308 10 340 0.0 0.0 0.00 0.05 0.00 80 1010.1
20260504234807 10 341 0.0 0.0 0.00 0.05 0.00 80 1010.1
20260504234309 10 341 0.0 0.0 0.00 0.05 0.00 80 1010.1
20260504233808 10 341 0.0 0.0 0.00 0.05 0.00 80 1010.2
20260504233309 10 341 0.0 0.0 0.00 0.05 0.00 80 1010.1
20260504232811 10 353 0.0 0.0 0.00 0.05 0.00 80 1010.2
20260504232308 10 353 0.0 0.0 0.00 0.05 0.00 79 1010.3
20260504231810 10 341 0.0 0.0 0.00 0.05 0.00 79 1010.3
20260504231308 10 340 0.0 0.0 0.00 0.05 0.00 80 1010.4
20260504230809 11 341 0.0 0.0 0.00 0.05 0.00 80 1010.5
20260504230308 11 340 0.0 0.0 0.00 0.05 0.00 79 1010.5
20260504225809 11 353 0.0 0.0 0.00 0.05 0.00 79 1010.6
20260504224809 11 341 0.0 0.0 0.00 0.05 0.00 79 1010.6
20260504224308 11 341 0.0 0.0 0.00 0.05 0.00 79 1010.6
20260504223808 11 353 0.0 0.0 0.00 0.05 0.00 79 1010.6
20260504223308 11 340 0.0 0.0 0.03 0.05 0.00 79 1010.7
20260504222808 11 341 0.0 0.0 0.03 0.05 0.00 79 1010.8
20260504221810 11 340 0.0 0.0 0.03 0.05 0.00 78 1010.7
20260504221310 11 353 0.0 0.0 0.03 0.05 0.00 78 1010.7
20260504215809 11 340 0.0 0.0 0.03 0.05 0.05 79 1010.7
20260504215310 11 341 0.0 0.0 0.03 0.05 0.05 79 1010.8
20260504214802 11 341 0.0 0.0 0.03 0.05 0.05 80 1010.9
20260504213752 11 341 0.0 0.0 0.03 0.05 0.05 81 1010.9
20260504213250 11 353 0.0 0.0 0.00 0.03 0.03 80 1010.9
20260504212750 11 353 0.0 0.0 0.00 0.03 0.03 81 1010.9
20260504212250 11 353 0.0 0.0 0.00 0.03 0.03 81 1010.9
20260504211252 11 341 0.0 0.0 0.00 0.03 0.03 81 1010.9
20260504210751 12 341 0.0 0.0 0.00 0.03 0.03 81 1011.1
20260504210248 12 340 0.0 3.2 0.00 0.03 0.03 81 1011.1
20260504205747 12 341 0.0 3.2 0.00 0.03 0.03 81 1010.9
20260504205246 12 341 0.0 0.0 0.00 0.03 0.03 82 1011.1
20260504204242 12 340 0.0 0.0 0.00 0.03 0.03 82 1011.4
20260504203743 12 341 0.0 0.0 0.00 0.03 0.03 82 1011.4
20260504203242 12 341 0.0 0.0 0.00 0.03 0.03 82 1011.4
20260504202742 12 341 0.0 0.0 0.00 0.03 0.03 82 1011.5
20260504202239 12 341 0.0 0.0 0.00 0.03 0.03 82 1011.5
20260504201739 12 353 0.0 0.0 0.00 0.03 0.03 82 1011.5
20260504200736 13 341 0.0 4.8 0.03 0.03 0.03 82 1011.6
20260504200236 13 353 0.0 3.2 0.03 0.03 0.03 82 1011.5
20260504195237 13 343 1.6 4.8 0.03 0.03 0.03 83 1011.6
20260504194739 13 353 1.6 4.8 0.03 0.03 0.03 83 1011.5
20260504194238 13 353 1.6 4.8 0.03 0.03 0.03 83 1011.5
20260504193737 14 358 0.0 3.2 0.03 0.03 0.03 84 1011.5
20260504193237 14 358 0.0 3.2 0.03 0.03 0.03 83 1011.5
20260504192737 14 353 0.0 1.6 0.03 0.03 0.03 83 1011.6
20260504192237 15 353 0.0 1.6 0.03 0.03 0.03 81 1011.7
20260504191236 15 358 1.6 4.8 0.00 0.00 0.00 74 1011.7
20260504190236 15 71 0.0 3.2 0.00 0.00 0.00 71 1011.5
20260504185735 15 92 0.0 0.0 0.00 0.00 0.00 70 1011.3
20260504185239 15 92 0.0 0.0 0.00 0.00 0.00 70 1011.3
20260504184737 15 92 0.0 0.0 0.00 0.00 0.00 69 1011.3
20260504184237 15 93 0.0 0.0 0.00 0.00 0.00 66 1011.3
20260504183736 16 107 0.0 0.0 0.00 0.00 0.00 66 1011.2
20260504183237 16 106 0.0 0.0 0.00 0.00 0.00 65 1011.2
20260504182734 16 108 0.0 0.0 0.00 0.00 0.00 64 1011.2
20260504182235 16 107 0.0 0.0 0.00 0.00 0.00 64 1011.2
20260504181801 16 107 0.0 0.0 0.00 0.00 0.00 64 1011.1
20260504181234 17 107 0.0 0.0 0.00 0.00 0.00 64 1011.1
20260504180734 17 107 0.0 0.0 0.00 0.00 0.00 63 1010.9
20260504180234 17 108 0.0 0.0 0.00 0.00 0.00 63 1010.9
20260504175736 17 107 0.0 0.0 0.00 0.00 0.00 62 1010.8
20260504175234 18 108 0.0 0.0 0.00 0.00 0.00 65 1010.7
20260504174755 18 108 0.0 0.0 0.00 0.00 0.00 63 1010.7
20260504173233 19 108 0.0 3.2 0.00 0.00 0.00 57 1010.7
20260504172735 20 116 0.0 0.0 0.00 0.00 0.00 55 1010.8
20260504172236 20 115 0.0 0.0 0.00 0.00 0.00 54 1010.8
20260504171737 20 115 0.0 0.0 0.00 0.00 0.00 53 1010.8
20260504171235 20 115 0.0 1.6 0.00 0.00 0.00 50 1010.8
20260504170735 21 116 0.0 3.2 0.00 0.00 0.00 50 1010.8
20260504170235 21 114 1.6 4.8 0.00 0.00 0.00 49 1010.8
20260504160235 22 141 1.6 6.4 0.00 0.00 0.00 42 1011.3
20260504150736 22 146 3.2 11.3 0.00 0.00 0.00 43 1011.6
20260504150234 22 106 4.8 11.3 0.00 0.00 0.00 43 1011.6
20260504141234 22 328 3.2 12.9 0.00 0.00 0.00 41 1011.9
20260504140734 23 90 3.2 9.7 0.00 0.00 0.00 40 1012.0
20260504140238 23 105 4.8 14.5 0.00 0.00 0.00 43 1012.0
20260504130710 23 66 3.2 16.1 0.00 0.00 0.00 44 1012.4
20260504130210 22 80 4.8 16.1 0.00 0.00 0.00 47 1012.4
20260504120221 22 78 4.8 19.3 0.00 0.00 0.00 46 1012.7